Weather in Verkhovje

Russia / Oryol Oblast     52°49′21″N   37°16′04″E
temp.,
°C
wind,
m/s
gust,
m/s
humid.,
%
clouds,
%
prec.,
mm/h
press.,
hPa
HPBL,
m
22 april, thu
thu2200:00+4wsw359599 0.1 1015462
03:00+4ssw468673 0.1 1016404
06:00+3ssw389655 0.0 1017186
09:00+8ssw467693 0.0 1018422
12:00+12sw676162 0.3 10181440
15:00+14sw685491 1.2 10171662
18:00+13ssw596510 1.3 1017682
21:00+9s411809 2.1 1018232
23 april, fri
fri2300:00+8ssw4128460 0.0 1018266
03:00+7s411865 0.0 1018222
06:00+6s4128633 0.0 1018236
09:00+12s6116816 0.0 1017684
12:00+15s8114786 0.1 10152405
15:00+14ssw695786 0.7 10141344
18:00+13s6106798 1.3 1012868
21:00+8sw2489100 3.7 1012276
24 april, sat
sat2400:00+5wnw5692100 7.1 1012690
03:00+4w5995100 8.4 1012649
06:00+4wsw379089 0.3 1012374
09:00+7w58685 0.5 10111096
12:00+8wsw7956100 0.4 10111869
15:00+8wsw101242100 0.8 10112796
18:00+5w7105980 0.3 10111573
21:00+3w61074100 0.4 1012679
25 april, sun
sun2500:00+3wnw8147942 1.1 1013792
03:00+1w613855 1.1 1015463
06:000wsw512865 0.0 1016416
09:00+4wsw7106642 0.0 10161069
12:00+7wsw71249100 0.0 10162432
15:00+9wsw81244100 0.3 10142624
18:00+6sw6872100 0.9 10151103
21:00+3wnw368998 3.3 1016437
26 april, mon
mon2600:00+2sw489410 0.0 1016240
03:00+1wsw34905 0.0 1016106
06:000w24875 0.0 1017135
09:00+4wsw34645 0.0 1016851
12:00+7sw344896 0.2 10152005
15:00+7wsw5549100 0.6 10141659
18:00+6wsw6759100 0.7 10131292
21:00+4wsw5977100 1.3 1014443